Chester, SC

11:18 PM EDT on October 20, 2019 (GMT -0400)
Chester

Weather History for KDCM - August, 2019

Change the Weather History Date:

Saturday, August 10, 2019

  Actual Average (WUND) Record (WUND)
Temperature  
Mean Temperature 80 °F -  
Max Temperature 91 °F - - (-1)
Min Temperature 68 °F - - (-1)
Cooling Degree Days 14    
Growing Degree Days 30 (Base 50)    
Moisture  
Dew Point 64 °F    
Average Humidity 58    
Maximum Humidity 83    
Minimum Humidity 38    
Precipitation  
Precipitation 0.00 in - - ()
Sea Level Pressure  
Sea Level Pressure 29.93 in    
Wind  
Wind Speed 2 mph (NE)    
Max Wind Speed 9 mph    
Max Gust Speed -    
Visibility 9 miles    
Events Thunderstorm    
Averages and records for this station are not official NWS values.
T = Trace of Precipitation, MM = Missing Value Source: NWS Daily Summary

Daily Weather History Graph

Daily Weather History Graph

Search for Another Location

Airport or City:

Astronomy

Aug. 10, 2019 Rise Set
Actual Time 6:41 AM EDT 8:18 PM EDT
Civil Twilight 6:14 AM EDT 8:45 PM EDT
Nautical Twilight 5:41 AM EDT 9:18 PM EDT
Astronomical Twilight 5:07 AM EDT 9:52 PM EDT
Moon 4:55 PM EDT (8/10) 2:20 AM EDT (8/10)
Length of Visible Light 14h 31m
Length of Day
13h 37m
Waxing Gibbous, 79% of the Moon is Illuminated
Aug 10
Waxing Gibbous
Aug 15
Full
Aug 23
Last Quarter
Aug 30
New
Sep 5
First Quarter

Hourly Weather History & Observations

Time (EDT) Temp. Heat Index Dew Point Humidity Pressure Visibility Wind Dir Wind Speed Gust Speed Precip Events Conditions
12:15 AM 75.2 °F - 60.8 °F 61% 29.93 in 7.0 mi Calm Calm - N/A   Clear
12:35 AM 75.2 °F - 62.6 °F 65% 29.93 in 10.0 mi Calm Calm - N/A   Clear
1:15 AM 75.2 °F - 60.8 °F 61% 29.92 in 10.0 mi WSW 3.5 mph - N/A   Clear
1:55 AM 73.4 °F - 60.8 °F 65% 29.92 in 10.0 mi Calm Calm - N/A   Clear
2:15 AM 73.4 °F - 60.8 °F 65% 29.92 in 10.0 mi WSW 3.5 mph - N/A   Clear
2:35 AM 73.4 °F - 60.8 °F 65% 29.91 in 10.0 mi WSW 3.5 mph - N/A   Clear
2:55 AM 73.4 °F - 60.8 °F 65% 29.91 in 10.0 mi Calm Calm - N/A   Clear
3:15 AM 71.6 °F - 60.8 °F 69% 29.91 in 10.0 mi Calm Calm - N/A   Clear
4:15 AM 69.8 °F - 62.6 °F 78% 29.91 in 10.0 mi Calm Calm - N/A   Clear
4:35 AM 69.8 °F - 62.6 °F 78% 29.91 in 10.0 mi Calm Calm - N/A   Clear
4:55 AM 69.8 °F - 62.6 °F 78% 29.91 in 7.0 mi Calm Calm - N/A   Clear
5:15 AM 69.8 °F - 62.6 °F 78% 29.90 in 10.0 mi Calm Calm - N/A   Clear
5:35 AM 68.0 °F - 62.6 °F 83% 29.91 in 10.0 mi Calm Calm - N/A   Clear
5:55 AM 69.8 °F - 62.6 °F 78% 29.91 in 10.0 mi Calm Calm - N/A   Clear
6:15 AM 68.0 °F - 62.6 °F 83% 29.92 in 10.0 mi Calm Calm - N/A   Clear
6:35 AM 68.0 °F - 62.6 °F 83% 29.92 in 7.0 mi Calm Calm - N/A   Clear
6:55 AM 68.0 °F - 62.6 °F 83% 29.93 in 7.0 mi Calm Calm - N/A   Clear
7:15 AM 69.8 °F - 62.6 °F 78% 29.93 in 7.0 mi Calm Calm - N/A   Clear
7:35 AM 69.8 °F - 62.6 °F 78% 29.93 in 10.0 mi Calm Calm - N/A   Clear
7:55 AM 69.8 °F - 64.4 °F 83% 29.95 in 10.0 mi Calm Calm - N/A   Clear
8:15 AM 71.6 °F - 62.6 °F 73% 29.94 in 10.0 mi NNE 3.5 mph - N/A   Scattered Clouds
8:35 AM 75.2 °F - 62.6 °F 65% 29.95 in 10.0 mi Calm Calm - N/A   Clear
8:55 AM 77.0 °F - 62.6 °F 61% 29.95 in 10.0 mi North 4.6 mph - N/A   Clear
9:15 AM 77.0 °F - 64.4 °F 65% 29.96 in 10.0 mi NNE 4.6 mph - N/A   Clear
9:35 AM 78.8 °F - 62.6 °F 57% 29.96 in 10.0 mi NNE 5.8 mph - N/A   Clear
9:55 AM 80.6 °F 81.8 °F 62.6 °F 54% 29.96 in 10.0 mi NNE 6.9 mph - N/A   Clear
10:15 AM 82.4 °F 83.4 °F 62.6 °F 51% 29.96 in 7.0 mi NE 5.8 mph - N/A   Clear
10:35 AM 82.4 °F 83.4 °F 62.6 °F 51% 29.96 in 10.0 mi NE 4.6 mph - N/A   Clear
10:55 AM 84.2 °F 85.0 °F 62.6 °F 48% 29.97 in 7.0 mi NE 6.9 mph - N/A   Clear
11:15 AM 86.0 °F 86.6 °F 62.6 °F 45% 29.97 in 7.0 mi ENE 4.6 mph - N/A   Scattered Clouds
11:35 AM 86.0 °F 86.6 °F 62.6 °F 45% 29.97 in 10.0 mi East 4.6 mph - N/A   Scattered Clouds
11:55 AM 86.0 °F 86.6 °F 62.6 °F 45% 29.97 in 7.0 mi ENE 6.9 mph - N/A   Clear
12:15 PM 87.8 °F 88.5 °F 62.6 °F 43% 29.97 in 10.0 mi NE 6.9 mph - N/A   Clear
12:35 PM 87.8 °F 88.5 °F 62.6 °F 43% 29.96 in 10.0 mi NE 6.9 mph - N/A   Clear
12:55 PM 89.6 °F 90.1 °F 62.6 °F 40% 29.96 in 10.0 mi East 5.8 mph - N/A   Clear
1:15 PM 87.8 °F 87.6 °F 60.8 °F 40% 29.95 in 5.0 mi NE 6.9 mph - N/A   Haze
1:35 PM 87.8 °F 88.5 °F 62.6 °F 43% 29.95 in 7.0 mi North 9.2 mph - N/A   Scattered Clouds
1:55 PM 87.8 °F 89.4 °F 64.4 °F 46% 29.95 in 10.0 mi NE 8.1 mph - N/A   Clear
2:15 PM 87.8 °F 89.4 °F 64.4 °F 46% 29.94 in 7.0 mi NE 9.2 mph - N/A   Scattered Clouds
2:35 PM 87.8 °F 89.4 °F 64.4 °F 46% 29.93 in 5.0 mi NNE 5.8 mph - N/A   Haze
2:55 PM 87.8 °F 89.4 °F 64.4 °F 46% 29.93 in 7.0 mi NNE 6.9 mph - N/A   Clear
3:35 PM 89.6 °F 91.1 °F 64.4 °F 43% 29.92 in 10.0 mi NE 3.5 mph - N/A   Clear
3:55 PM 89.6 °F 90.1 °F 62.6 °F 40% 29.90 in 10.0 mi NNW 5.8 mph - N/A   Clear
4:15 PM 91.4 °F 92.1 °F 62.6 °F 38% 29.89 in 7.0 mi NE 4.6 mph - N/A   Clear
4:35 PM 89.6 °F 90.1 °F 62.6 °F 40% 29.89 in 7.0 mi Calm Calm - N/A   Clear
4:55 PM 89.6 °F 90.1 °F 62.6 °F 40% 29.89 in 7.0 mi Calm Calm - N/A Thunderstorm Clear
5:15 PM 89.6 °F 91.1 °F 64.4 °F 43% 29.88 in 10.0 mi NE 6.9 mph - N/A   Clear
5:35 PM 89.6 °F 91.1 °F 64.4 °F 43% 29.88 in 10.0 mi NE 4.6 mph - N/A   Clear
5:55 PM 89.6 °F 91.1 °F 64.4 °F 43% 29.88 in 10.0 mi North 4.6 mph - N/A   Clear
6:15 PM 89.6 °F 90.1 °F 62.6 °F 40% 29.88 in 10.0 mi East 4.6 mph - N/A   Clear
6:35 PM 89.6 °F 91.1 °F 64.4 °F 43% 29.87 in 10.0 mi ESE 4.6 mph - N/A   Clear
6:55 PM 89.6 °F 91.1 °F 64.4 °F 43% 29.88 in 10.0 mi East 4.6 mph - N/A   Clear
7:15 PM 87.8 °F 89.4 °F 64.4 °F 46% 29.88 in 10.0 mi East 4.6 mph - N/A   Clear
7:35 PM 87.8 °F 89.4 °F 64.4 °F 46% 29.88 in 10.0 mi SE 3.5 mph - N/A   Clear
7:55 PM 87.8 °F 89.4 °F 64.4 °F 46% 29.89 in 10.0 mi Calm Calm - N/A   Clear
8:15 PM 84.2 °F 86.6 °F 66.2 °F 55% 29.90 in 10.0 mi Calm Calm - N/A   Clear
8:35 PM 82.4 °F 84.6 °F 66.2 °F 58% 29.91 in 10.0 mi Calm Calm - N/A   Clear
8:55 PM 80.6 °F 82.7 °F 66.2 °F 61% 29.91 in 10.0 mi Calm Calm - N/A   Scattered Clouds
9:15 PM 82.4 °F 84.6 °F 66.2 °F 58% 29.92 in 10.0 mi Calm Calm - N/A   Overcast
9:35 PM 80.6 °F 83.2 °F 68.0 °F 65% 29.92 in 10.0 mi Calm Calm - N/A   Scattered Clouds
9:55 PM 78.8 °F - 68.0 °F 69% 29.93 in 10.0 mi Calm Calm - N/A   Clear
10:15 PM 78.8 °F - 68.0 °F 69% 29.93 in 10.0 mi Calm Calm - N/A   Clear
10:35 PM 78.8 °F - 68.0 °F 69% 29.94 in 10.0 mi Calm Calm - N/A   Scattered Clouds
10:55 PM 80.6 °F 83.2 °F 68.0 °F 65% 29.95 in 10.0 mi Calm Calm - N/A   Scattered Clouds
11:15 PM 80.6 °F 83.2 °F 68.0 °F 65% 29.95 in 10.0 mi Calm Calm - N/A   Scattered Clouds
11:35 PM 78.8 °F - 68.0 °F 69% 29.95 in 10.0 mi Calm Calm - N/A   Scattered Clouds
11:55 PM 77.0 °F - 68.0 °F 74% 29.95 in 10.0 mi Calm Calm - N/A   Clear